SCP
0 0 0 0 0 0 0 0 0 0 0 0 0 0 0 0 0 0 0 0 0 0 0 0 0 0 0 0 0 0 0 0 0 0 0 0 0 0 0 0 0 0 0 0 0 0 0 0 0 0 0 0 0 0
0 0 0 0 0 0 0 0 0 0 0 0 0 0 0 0 0 0 0 0 0 0 0 0 0 0 0 0 0 0 0 0 0 0 0 0 0 0 0 0 0 0 0 0 0 0 0 0 0 0 0 0 0 0
0 0 0 0 0 0 0 0 0 0 0 0 0 0 0 0 0 0 0 0 0 0 0 0 0 0 0 0 0 0 0 0 0 0 0 0 0 0 0 0 0 0 0 0 0 0 0 0 0 0 0 0 0 0
0 0 0 0 0 0 0 0 0 0 0 0 0 0 0 0 0 0 0 0 0 0 0 0 0 0 0 0 0 0 0 0 0 0 0 0 0 0 0 0 0 0 0 0 0 0 0 0 0 0 0 0 0 0
0 0 0 0 0 0 0 0 0 0 0 0 0 0 0 0 0 0 0 0 0 0 0 0 0 0 0 0 0 0 0 0 0 0 0 0 0 0 0 0 0 0 0 0 0 0 0 0 0 0 0 0 0 0
0 0 0 0 0 0 0 0 0 0 0 0 0 0 0 0 0 0 0 0 0 0 0 0 0 0 0 0 0 0 0 0 0 0 0 0 0 0 0 0 0 0 0 0 0 0 0 0 0 0 0 0 0 0
0 0 -0 0 0 0 0 0 0 0 0 0 0 0 0 0 0 0 0 0 0 0 0 0 0 0 0 0 0 0 0 0 0 0 0 0 0 0 0 0 0 0 0 0 0 0 0 0 0 0 0 0 0 0
0 -0 0 0 0 0 0 0 0 0 0 0 0 0 0 0 0 0 0 0 0 0 0 0 0 0 0 0 0 0 0 0 0 0 0 0 0 0 0 0 0 0 0 0 0 0 0 0 0 0 0 0 0 0
0 0 0 0 0 0 0 0 0 0 0 0 0 0 0 0 0 0 0 0 0 0 0 0 0 0 0 0 0 0 0 0 0 0 0 0 0 0 0 0 0 0 0 0 0 0 0 0 0 0 0 0 0 0
0 0 0 0 0 0 0 0 0 0 0 0 0 0 0 0 0 0 0 0 0 0 0 0 0 0 0 0 0 0 0 0 0 0 0 0 0 0 0 0 0 0 0 0 0 0 0 0 0 0 0 0 0 0
0 0 0 0 0 0 0 0 0 0 0 0 0 0 0 0 0 0 0 0 0 0 0 0 0 0 0 0 0 0 0 0 0 0 0 0 0 0 0 0 0 0 0 0 0 0 0 0 0 0 0 0 0 0
0 0 0 0 0 0 0 0 0 0 0 0 0 0 0 0 0 0 0 0 0 0 0 0 0 0 0 0 0 0 0 0 0 0 0 0 0 0 0 0 0 0 0 0 0 0 0 0 0 0 0 0 0 0
0 0 0 0 0 0 0 0 0 0 0 0 0 0 0 0 0 0 0 0 0 0 0 0 0 0 0 0 0 0 0 0 0 0 0 0 0 0 0 0 0 0 0 0 0 0 0 0 0 0 0 0 0 0
0 0 0 0 0 0 0 0 0 0 0 0 0 0 0 0 0 0 0 0 0 0 0 0 0 0 0 0 0 0 0 0 0 0 0 0 0 0 0 0 0 0 0 0 0 0 0 0 0 0 0 0 0 0
0 0 0 0 0 0 0 0 0 0 0 0 0 0 0 0 0 0 0 0 0 0 0 0 0 0 0 0 0 0 0 0 0 0 0 0 0 0 0 0 0 0 0 0 0 0 0 0 0 0 0 0 0 0
0 0 0 0 0 0 0 0 0 0 0 0 0 0 0 0 0 0 0 0 0 0 0 0 0 0 0 0 0 0 0 0 0 0 0 0 0 0 0 0 0 0 0 0 0 0 0 0 0 0 0 0 0 0
0 0 0 0 0 0 0 0 0 0 0 0 0 0 0 0 0 0 0 0 0 0 0 0 0 0 0 0 0 0 0 0 0 0 0 0 0 0 0 0 0 0 0 0 0 0 0 0 0 0 0 0 0 0
0 0 0 0 0 0 0 0 0 1 0 0 0 0 0 0 0 0 0 0 0 0 0 0 0 0 0 0 0 0 0 0 0 0 0 0 0 0 0 0 0 0 0 0 0 0 0 0 0 0 0 0 0 0
0 0 0 0 0 0 5 1 1 0 0 0 0 0 0 0 0 0 0 0 0 0 0 0 0 0 0 0 0 0 0 0 0 0 0 0 0 0 0 0 0 0 0 0 0 0 0 0 0 0 0 0 0 0
0 0 0 0 0 0 0 0 0 0 0 0 0 0 0 0 0 0 0 0 0 0 0 0 0 0 0 0 0 0 0 0 0 0 0 0 0 0 0 0 0 0 0 0 0 0 0 0 0 0 0 0 0 0
0 0 0 0 0 0 0 0 0 0 0 0 0 0 0 0 0 0 0 0 0 0 0 0 0 0 0 0 0 0 0 0 0 0 0 0 0 0 0 0 0 0 0 0 0 0 0 0 0 0 0 0 0 0
0 0 0 0 0 0 0 0 0 0 0 0 0 0 0 0 0 0 0 0 0 0 0 0 0 0 0 0 0 0 0 0 0 0 0 0 0 0 0 0 0 0 0 0 0 0 0 0 0 0 0 0 0 0
0 0 0 0 0 0 0 0 0 0 0 0 0 0 0 0 0 0 0 0 0 0 0 0 0 0 0 0 0 0 0 0 0 0 0 0 0 0 0 0 0 0 0 0 0 0 0 0 0 0 0 0 0 0
0 0 0 0 0 0 0 0 0 0 0 0 0 0 0 0 0 0 0 0 0 0 0 0 0 0 0 0 0 0 0 0 0 0 0 0 0 0 0 0 0 0 0 0 0 0 0 0 0 0 0 0 0 0
0 0 0 0 0 0 0 0 0 0 0 0 0 0 0 0 0 0 0 0 0 0 0 0 0 0 0 0 0 0 0 0 0 0 0 0 0 0 0 0 0 0 0 0 0 0 0 0 0 0 0 0 0 0
0 0 0 0 0 0 0 0 0 0 0 0 0 0 0 0 0 0 0 0 0 0 0 0 0 0 0 0 0 0 0 0 0 0 0 0 0 0 0 0 0 0 0 0 0 0 0 0 0 0 0 0 0 0
0 0 0 0 0 0 0 0 0 0 0 0 0 0 0 0 0 0 0 0 0 0 0 0 0 0 0 0 0 0 0 0 0 0 0 0 0 0 0 0 0 0 0 0 0 0 0 0 0 0 0 0 0 0
0 0 0 0 0 0 0 0 0 0 0 0 0 0 0 0 0 0 0 0 0 0 0 0 0 0 0 0 0 0 0 0 0 0 0 0 0 0 0 0 0 0 0 0 0 0 0 0 0 0 0 0 0 0
0 0 0 0 0 0 0 0 0 0 0 0 0 0 0 0 0 0 0 0 0 0 0 0 0 0 0 0 0 0 0 0 0 0 0 0 0 0 0 0 0 0 0 0 0 0 0 0 0 0 0 0 0 0
0 0 0 0 0 0 0 0 0 0 0 0 0 0 0 0 0 0 0 0 0 0 0 0 0 0 0 0 0 0 0 0 0 0 0 0 0 0 0 0 0 0 0 0 0 0 0 0 0 0 0 0 0 0
0 0 0 0 0 0 0 0 0 0 0 0 0 0 0 0 0 0 0 0 0 0 0 0 0 0 0 0 0 0 0 0 0 0 0 0 0 0 0 0 0 0 0 0 0 0 0 0 0 0 0 0 0 0
0 0 0 0 0 0 0 0 0 0 0 0 0 0 0 0 0 0 0 0 0 0 0 0 0 0 0 0 0 0 0 0 0 0 0 0 0 0 0 0 0 0 0 0 0 0 0 0 0 0 0 0 0 0
0 0 0 0 0 0 0 0 0 0 0 0 0 0 0 0 0 0 0 0 0 0 0 0 0 0 0 0 0 0 0 0 0 0 0 0 0 0 0 0 0 0 0 0 0 0 0 0 0 0 0 0 0 0
Wind_Speed_500mb
46 66 43 67 82 76 71 66 71 66 56 49 42 38 37 37 46 53 48 40 26 20 23 13 21 13 14 15 9 28 17 6 5 3 2 4 2 3 4 2 3 4 5 2 1 4 7 16 7 4 11 22 30 34
44 61 67 63 87 80 72 70 74 68 58 50 43 37 35 32 46 53 46 43 32 22 21 24 23 25 20 23 18 30 3 12 15 4 2 5 4 4 4 2 5 4 4 1 9 5 8 7 3 6 7 20 27 33
40 62 76 62 87 82 74 74 77 71 61 52 46 38 34 34 45 56 45 50 39 46 30 12 14 22 19 20 30 12 10 12 8 13 8 4 4 2 5 6 4 10 9 5 4 13 11 7 3 4 10 18 24 29
52 61 71 59 90 84 77 79 80 73 63 56 49 43 42 41 44 47 38 51 35 34 18 9 19 21 21 19 11 10 15 21 28 16 10 5 3 4 1 6 7 6 20 12 9 8 7 8 7 4 11 13 19 27
56 60 71 68 93 89 81 85 83 75 66 59 50 44 43 42 42 39 44 54 49 12 18 21 22 16 20 19 20 27 26 28 14 8 7 3 5 5 2 4 11 20 11 8 5 15 4 14 11 5 6 13 20 29
52 68 75 63 92 93 85 90 86 79 70 62 55 48 44 39 38 47 22 37 29 27 22 11 13 11 18 21 20 21 22 16 12 8 7 6 4 1 3 6 3 19 13 6 10 16 16 16 8 1 4 13 21 28
55 68 80 69 99 99 90 95 91 82 73 66 59 52 46 52 61 40 17 40 40 25 14 19 13 10 20 18 14 15 13 10 8 7 4 5 5 4 4 7 15 21 20 18 24 21 14 9 5 3 5 12 20 24
56 70 79 81 108 104 97 102 95 85 77 70 63 58 64 65 45 17 33 52 37 16 14 16 8 12 16 7 6 7 6 8 8 4 4 5 4 7 9 20 14 27 26 23 22 11 15 14 9 2 6 12 19 25
60 67 79 88 113 108 105 109 100 91 82 74 72 72 59 41 26 30 38 30 20 10 18 12 13 9 19 9 8 5 6 6 3 2 4 4 7 12 13 21 32 39 32 30 24 16 13 13 8 2 6 12 19 26
60 66 84 99 119 113 114 114 107 97 87 85 81 41 21 30 42 44 16 8 6 7 10 14 18 9 17 11 6 7 5 5 3 4 2 6 8 20 16 19 31 40 28 36 31 22 19 17 11 4 4 12 20 24
59 71 90 93 132 114 118 121 114 104 99 83 38 23 47 67 33 8 10 6 6 10 8 14 15 24 16 8 10 5 7 3 3 4 4 5 7 12 26 26 35 40 32 33 21 18 20 16 12 5 3 13 19 24
53 75 92 91 137 124 126 131 126 125 92 66 44 61 58 17 9 11 2 4 5 10 15 21 20 18 15 13 11 8 6 4 4 6 4 7 6 16 33 37 41 39 37 32 23 25 22 17 12 6 4 11 18 24
46 76 99 98 148 137 138 140 135 119 94 76 40 23 17 9 7 17 17 7 11 25 24 33 21 14 13 10 13 8 7 5 10 4 7 8 18 26 37 43 45 40 36 30 27 25 22 17 11 4 4 10 17 22
52 77 95 110 143 135 147 149 148 121 107 26 20 13 15 11 15 11 13 15 19 35 61 49 24 11 10 9 9 8 5 7 6 6 11 12 34 38 44 48 49 45 39 34 31 28 23 17 10 4 2 8 15 21
60 78 78 118 130 134 152 160 148 133 79 21 21 16 12 15 14 33 47 45 40 72 72 41 23 14 9 10 6 9 7 10 12 10 6 24 40 50 53 54 50 46 42 37 33 31 25 18 11 6 3 8 14 21
55 72 93 147 154 137 162 163 141 112 48 24 18 14 32 35 18 27 34 54 71 73 49 17 13 8 6 12 11 16 16 14 8 13 20 37 48 54 59 59 51 54 43 40 36 31 25 19 12 6 4 8 13 19
50 42 112 156 134 153 167 127 100 32 40 25 14 31 46 48 53 51 57 53 92 82 9 18 12 8 21 8 11 11 11 5 20 24 31 39 49 61 64 59 54 58 44 40 36 32 25 20 13 8 4 8 13 18
54 56 119 149 158 170 161 78 34 22 12 16 22 47 44 46 62 57 51 93 73 42 30 12 27 12 14 17 10 15 25 25 22 26 31 40 49 59 65 56 57 57 46 41 37 31 26 20 14 9 7 6 10 15
61 48 133 177 140 117 46 29 19 14 11 26 46 77 53 55 52 86 84 106 57 62 38 30 10 12 11 21 23 40 51 45 40 35 34 41 56 67 65 61 61 54 45 41 36 31 25 20 16 13 8 6 7 12
74 46 141 169 158 44 16 8 26 19 16 27 49 52 45 36 63 74 86 89 71 41 14 10 14 20 34 39 43 45 50 46 43 46 46 53 61 69 71 69 65 55 47 41 35 30 26 22 18 15 11 7 5 9
81 74 170 172 100 34 15 18 13 17 32 20 59 41 27 50 49 45 49 57 31 16 16 23 38 42 39 44 43 39 40 40 44 41 50 70 73 78 73 66 62 56 51 45 38 32 27 20 18 16 12 9 6 8
62 141 142 97 33 13 13 12 30 30 15 34 31 24 25 19 23 34 51 30 19 34 27 41 58 59 50 49 47 40 37 41 40 39 48 64 85 85 79 74 66 58 49 42 36 31 28 24 19 15 12 10 7 7
117 111 82 23 16 12 16 25 11 13 13 20 21 15 8 13 25 49 22 21 18 44 49 53 60 63 57 52 47 43 40 44 47 49 61 74 83 84 77 68 59 54 48 40 36 33 30 28 22 18 14 10 9 7
105 43 19 16 13 12 25 10 12 19 19 10 8 12 12 15 43 10 12 27 20 54 68 69 74 73 61 58 57 54 54 54 54 54 67 85 86 79 70 63 55 48 41 38 36 32 29 26 24 21 17 13 11 8
20 11 23 10 15 17 11 15 8 8 11 8 10 9 12 23 11 14 10 21 61 74 82 85 83 83 83 74 68 65 63 64 65 70 80 83 84 77 68 59 53 48 44 40 37 33 30 27 25 23 18 16 13 10
14 10 11 11 13 15 17 16 16 13 14 10 7 21 15 9 10 16 18 48 67 92 101 103 100 92 86 82 82 78 78 72 69 76 86 87 81 80 76 68 59 52 45 40 36 34 31 28 26 24 23 19 15 12
14 9 12 15 28 31 17 19 28 14 12 16 15 16 13 17 19 10 37 70 85 92 97 101 102 98 94 90 81 75 77 79 78 81 87 81 71 66 62 59 53 46 43 42 38 34 32 30 28 26 23 19 16 14
10 18 25 28 17 11 15 13 13 12 13 31 33 16 24 25 10 31 38 75 82 97 107 101 97 96 95 96 90 89 90 86 83 82 84 77 70 62 53 46 42 37 38 39 37 35 33 31 29 27 24 20 19 18
8 40 32 23 12 11 6 8 9 14 35 53 14 11 11 10 36 38 64 91 95 109 111 103 95 96 92 91 95 99 100 100 101 97 90 81 72 63 55 49 47 45 44 42 40 36 33 31 28 26 24 22 21 19
10 13 12 8 10 8 5 11 21 39 46 31 27 36 28 26 27 56 86 96 105 115 116 119 121 116 115 116 112 104 97 93 88 89 87 83 76 66 59 54 51 47 43 40 39 38 37 35 33 31 28 25 23 22
17 13 13 11 10 26 48 66 63 48 32 34 51 60 45 34 37 51 67 79 85 88 96 103 105 106 118 120 119 114 104 94 86 79 72 69 65 62 58 53 48 44 42 40 39 39 37 35 34 31 29 28 26 24
11 7 10 13 19 53 49 34 28 44 30 30 27 31 44 28 15 31 52 63 74 82 90 102 109 108 115 110 106 98 94 90 84 74 66 61 58 55 51 47 44 44 43 41 41 40 38 37 36 34 32 30 29 27
51 70 64 40 16 11 15 22 18 14 20 19 21 31 21 10 13 25 54 63 72 79 86 93 101 105 101 103 100 92 82 76 70 64 59 59 56 55 53 48 47 46 44 43 41 40 40 38 37 35 34 33 33 33
Wind_Direction_500mb
243 225 217 212 214 214 215 210 208 208 207 212 211 213 216 217 213 203 206 204 198 121 134 145 144 128 139 152 144 147 131 176 156 120 163 107 227 107 249 77 275 264 193 177 109 261 275 153 161 270 343 322 328 332
243 230 224 212 215 213 212 207 205 206 204 207 205 207 210 210 203 198 200 193 195 143 132 135 127 141 151 140 121 158 107 134 167 122 195 105 158 161 356 263 193 245 242 289 218 351 102 159 300 318 297 315 324 326
252 227 223 213 215 210 208 205 202 204 201 202 199 199 197 192 188 193 200 184 166 115 102 111 106 118 128 140 145 138 164 159 146 133 119 99 136 180 223 232 219 199 197 237 300 177 223 208 228 277 297 309 322 326
243 224 223 220 214 208 205 203 200 201 198 198 197 198 199 190 183 192 197 180 166 129 112 108 124 116 113 127 135 131 154 145 143 117 93 116 153 200 288 353 267 38 160 201 244 192 185 205 183 285 310 325 326 325
239 223 215 228 214 208 202 201 198 198 195 194 192 187 182 181 184 189 202 186 171 168 122 129 115 102 110 110 116 120 128 131 118 90 84 115 108 170 191 300 244 185 192 197 16 128 153 133 179 265 324 335 332 334
238 227 214 220 212 206 200 198 196 195 192 189 187 180 176 181 189 173 143 174 184 146 112 124 128 110 117 117 122 123 127 121 107 94 103 114 157 199 229 262 85 173 163 146 145 132 121 133 140 208 343 335 335 338
239 223 213 221 213 206 198 195 193 193 189 185 183 180 181 171 165 179 193 170 161 138 115 106 110 151 136 117 107 97 107 104 87 95 117 135 144 168 247 244 143 168 158 137 139 129 123 142 149 189 351 336 339 340
236 224 210 214 210 206 194 193 190 190 185 181 177 172 162 168 184 171 154 150 152 125 106 110 101 148 155 121 94 104 92 86 66 100 125 172 162 213 246 223 165 163 156 152 153 133 131 144 148 130 356 340 346 344
232 225 210 211 208 207 192 189 187 185 181 174 169 165 167 174 173 144 143 140 131 123 113 104 137 154 151 117 110 97 96 87 78 168 153 202 199 229 225 188 179 174 173 170 164 152 142 148 163 123 357 343 346 343
232 220 207 212 212 208 191 186 185 181 175 168 161 154 174 173 155 140 136 147 117 81 90 91 121 123 150 141 118 124 76 106 174 94 154 226 256 242 216 187 184 177 171 168 166 170 170 175 178 154 6 342 345 343
231 218 209 206 205 206 189 184 182 174 170 158 165 166 148 147 141 132 136 127 123 67 81 108 132 129 138 141 127 127 136 128 160 113 248 234 256 208 191 176 174 172 171 171 175 178 173 176 166 136 349 336 341 342
236 214 204 204 208 207 186 184 179 173 167 169 158 133 136 153 125 120 75 120 149 159 136 126 131 121 125 122 113 133 112 161 164 141 248 250 213 168 169 169 169 170 165 169 169 164 162 163 168 181 306 332 341 347
245 206 200 203 202 202 184 183 179 171 163 153 144 159 151 162 110 163 176 199 161 165 157 149 132 124 116 115 96 125 144 132 129 201 242 239 163 170 169 167 167 167 167 168 164 170 174 179 186 201 328 347 344 348
230 207 198 202 206 203 187 181 179 167 159 167 143 133 190 175 200 183 174 134 139 149 142 136 117 120 124 108 136 121 96 149 178 230 234 192 185 174 170 171 169 169 171 171 174 174 177 177 187 218 326 342 342 351
217 214 202 202 209 209 186 182 177 171 171 160 152 192 176 150 126 141 149 134 140 145 140 122 95 108 109 111 115 114 133 206 217 227 203 174 174 171 169 172 173 172 171 173 175 175 175 179 184 209 310 333 347 353
221 212 198 197 196 199 183 180 173 176 187 165 169 117 146 140 133 143 144 136 149 147 137 116 116 125 130 135 153 206 170 210 209 201 176 170 172 172 172 172 173 178 172 175 176 175 180 183 184 210 285 327 347 353
231 225 196 195 196 192 182 172 176 183 181 174 159 158 158 156 166 164 162 160 158 152 142 137 131 151 124 157 192 189 209 191 158 160 175 179 180 173 171 169 174 176 172 174 177 179 186 194 196 205 252 319 344 354
238 198 193 196 190 181 174 183 187 182 143 138 143 159 164 166 159 158 166 161 157 180 161 159 131 163 172 172 200 198 190 172 157 166 168 173 171 172 169 169 175 176 174 175 178 184 192 194 196 209 242 304 337 351
220 209 195 189 187 170 179 196 188 115 98 136 154 165 160 160 171 177 174 163 178 171 151 151 133 171 188 208 188 180 181 173 169 166 168 170 173 171 170 173 175 175 176 177 179 186 193 198 201 213 234 281 328 342
205 191 186 185 180 169 148 140 157 129 141 156 156 148 153 155 165 173 161 172 170 163 167 176 184 190 177 179 180 182 180 176 171 156 158 165 175 178 177 177 177 177 178 177 181 191 197 204 210 216 229 257 307 329
209 200 178 174 172 166 146 146 109 115 123 121 142 134 121 139 136 146 162 170 178 207 182 193 177 174 182 182 179 179 179 189 187 193 190 173 175 178 179 180 180 182 184 186 190 192 194 198 210 219 230 253 288 324
210 172 166 168 163 118 103 131 122 112 91 140 119 112 125 140 141 155 161 188 220 202 186 181 180 177 172 170 171 175 176 177 190 197 187 183 173 179 181 184 183 185 188 192 192 195 197 201 210 222 228 249 277 310
173 166 163 143 105 94 125 120 97 113 125 151 123 101 117 136 167 154 190 219 197 198 186 185 182 179 178 173 171 172 179 188 189 189 184 180 179 181 182 184 186 187 189 191 194 196 200 208 211 215 219 234 261 292
163 152 128 115 113 113 137 139 129 111 116 142 109 110 133 132 152 210 236 179 177 176 181 183 178 170 172 175 177 181 188 192 192 186 183 182 180 180 183 183 186 190 193 191 192 196 201 198 200 205 212 220 239 257
118 126 112 116 131 113 128 140 139 110 110 137 121 137 151 164 177 191 215 173 170 173 176 179 180 181 177 179 183 185 191 194 190 181 184 184 180 177 180 184 186 189 190 190 193 195 194 196 199 207 212 219 233 243
94 161 132 136 148 131 158 136 158 132 119 131 115 131 146 140 173 227 189 166 170 175 179 181 182 181 188 197 189 188 192 190 190 185 179 184 185 181 180 182 186 190 193 197 198 197 198 198 202 206 207 215 223 235
116 137 138 120 129 119 105 90 124 107 133 153 152 158 158 175 221 181 149 178 175 188 192 194 194 194 195 192 195 196 191 188 189 183 179 180 183 189 189 189 195 199 199 200 202 202 201 202 204 204 208 214 220 228
118 155 142 147 119 123 115 125 143 155 144 151 137 172 181 198 174 159 169 176 188 189 187 188 190 192 196 196 190 185 179 177 178 178 173 175 182 187 190 196 201 198 194 198 200 198 199 202 203 204 208 214 219 222
120 134 124 111 98 87 90 128 145 135 141 161 143 144 139 116 145 163 167 173 181 178 173 173 179 188 188 188 186 183 179 175 175 173 173 173 178 186 192 192 190 189 188 188 190 194 196 196 199 203 209 215 220 221
109 100 97 73 64 66 77 92 115 130 136 132 112 110 97 96 142 164 168 169 169 173 175 177 180 184 183 180 176 175 178 179 179 176 175 181 184 183 185 185 183 180 181 185 190 192 195 201 204 206 210 217 222 222
111 104 86 86 93 95 109 109 108 103 97 103 120 119 121 114 122 150 160 164 164 163 164 168 171 179 178 175 173 171 171 177 181 185 185 181 178 177 179 181 181 183 187 191 194 197 199 200 204 209 214 219 222 227
57 78 117 101 122 124 108 80 76 94 91 91 112 126 122 114 102 155 163 167 164 165 169 168 169 170 179 176 175 176 176 174 178 181 180 174 172 176 178 182 183 186 190 192 197 201 202 204 208 214 219 223 227 231
104 103 106 103 100 82 109 98 94 66 55 90 107 118 103 90 125 157 167 173 170 165 162 162 168 171 173 175 173 174 174 171 170 171 171 172 174 176 179 183 186 189 193 197 201 204 208 211 214 219 225 231 236 239
Wind_Speed_850mb
46 66 43 67 82 76 71 66 71 66 56 49 42 38 37 37 46 53 48 40 26 20 23 13 21 13 14 15 9 28 17 6 5 3 2 4 2 3 4 2 3 4 5 2 1 4 7 16 7 4 11 22 30 34
44 61 67 63 87 80 72 70 74 68 58 50 43 37 35 32 46 53 46 43 32 22 21 24 23 25 20 23 18 30 3 12 15 4 2 5 4 4 4 2 5 4 4 1 9 5 8 7 3 6 7 20 27 33
40 62 76 62 87 82 74 74 77 71 61 52 46 38 34 34 45 56 45 50 39 46 30 12 14 22 19 20 30 12 10 12 8 13 8 4 4 2 5 6 4 10 9 5 4 13 11 7 3 4 10 18 24 29
52 61 71 59 90 84 77 79 80 73 63 56 49 43 42 41 44 47 38 51 35 34 18 9 19 21 21 19 11 10 15 21 28 16 10 5 3 4 1 6 7 6 20 12 9 8 7 8 7 4 11 13 19 27
56 60 71 68 93 89 81 85 83 75 66 59 50 44 43 42 42 39 44 54 49 12 18 21 22 16 20 19 20 27 26 28 14 8 7 3 5 5 2 4 11 20 11 8 5 15 4 14 11 5 6 13 20 29
52 68 75 63 92 93 85 90 86 79 70 62 55 48 44 39 38 47 22 37 29 27 22 11 13 11 18 21 20 21 22 16 12 8 7 6 4 1 3 6 3 19 13 6 10 16 16 16 8 1 4 13 21 28
55 68 80 69 99 99 90 95 91 82 73 66 59 52 46 52 61 40 17 40 40 25 14 19 13 10 20 18 14 15 13 10 8 7 4 5 5 4 4 7 15 21 20 18 24 21 14 9 5 3 5 12 20 24
56 70 79 81 108 104 97 102 95 85 77 70 63 58 64 65 45 17 33 52 37 16 14 16 8 12 16 7 6 7 6 8 8 4 4 5 4 7 9 20 14 27 26 23 22 11 15 14 9 2 6 12 19 25
60 67 79 88 113 108 105 109 100 91 82 74 72 72 59 41 26 30 38 30 20 10 18 12 13 9 19 9 8 5 6 6 3 2 4 4 7 12 13 21 32 39 32 30 24 16 13 13 8 2 6 12 19 26
60 66 84 99 119 113 114 114 107 97 87 85 81 41 21 30 42 44 16 8 6 7 10 14 18 9 17 11 6 7 5 5 3 4 2 6 8 20 16 19 31 40 28 36 31 22 19 17 11 4 4 12 20 24
59 71 90 93 132 114 118 121 114 104 99 83 38 23 47 67 33 8 10 6 6 10 8 14 15 24 16 8 10 5 7 3 3 4 4 5 7 12 26 26 35 40 32 33 21 18 20 16 12 5 3 13 19 24
53 75 92 91 137 124 126 131 126 125 92 66 44 61 58 17 9 11 2 4 5 10 15 21 20 18 15 13 11 8 6 4 4 6 4 7 6 16 33 37 41 39 37 32 23 25 22 17 12 6 4 11 18 24
46 76 99 98 148 137 138 140 135 119 94 76 40 23 17 9 7 17 17 7 11 25 24 33 21 14 13 10 13 8 7 5 10 4 7 8 18 26 37 43 45 40 36 30 27 25 22 17 11 4 4 10 17 22
52 77 95 110 143 135 147 149 148 121 107 26 20 13 15 11 15 11 13 15 19 35 61 49 24 11 10 9 9 8 5 7 6 6 11 12 34 38 44 48 49 45 39 34 31 28 23 17 10 4 2 8 15 21
60 78 78 118 130 134 152 160 148 133 79 21 21 16 12 15 14 33 47 45 40 72 72 41 23 14 9 10 6 9 7 10 12 10 6 24 40 50 53 54 50 46 42 37 33 31 25 18 11 6 3 8 14 21
55 72 93 147 154 137 162 163 141 112 48 24 18 14 32 35 18 27 34 54 71 73 49 17 13 8 6 12 11 16 16 14 8 13 20 37 48 54 59 59 51 54 43 40 36 31 25 19 12 6 4 8 13 19
50 42 112 156 134 153 167 127 100 32 40 25 14 31 46 48 53 51 57 53 92 82 9 18 12 8 21 8 11 11 11 5 20 24 31 39 49 61 64 59 54 58 44 40 36 32 25 20 13 8 4 8 13 18
54 56 119 149 158 170 161 78 34 22 12 16 22 47 44 46 62 57 51 93 73 42 30 12 27 12 14 17 10 15 25 25 22 26 31 40 49 59 65 56 57 57 46 41 37 31 26 20 14 9 7 6 10 15
61 48 133 177 140 117 46 29 19 14 11 26 46 77 53 55 52 86 84 106 57 62 38 30 10 12 11 21 23 40 51 45 40 35 34 41 56 67 65 61 61 54 45 41 36 31 25 20 16 13 8 6 7 12
74 46 141 169 158 44 16 8 26 19 16 27 49 52 45 36 63 74 86 89 71 41 14 10 14 20 34 39 43 45 50 46 43 46 46 53 61 69 71 69 65 55 47 41 35 30 26 22 18 15 11 7 5 9
81 74 170 172 100 34 15 18 13 17 32 20 59 41 27 50 49 45 49 57 31 16 16 23 38 42 39 44 43 39 40 40 44 41 50 70 73 78 73 66 62 56 51 45 38 32 27 20 18 16 12 9 6 8
62 141 142 97 33 13 13 12 30 30 15 34 31 24 25 19 23 34 51 30 19 34 27 41 58 59 50 49 47 40 37 41 40 39 48 64 85 85 79 74 66 58 49 42 36 31 28 24 19 15 12 10 7 7
117 111 82 23 16 12 16 25 11 13 13 20 21 15 8 13 25 49 22 21 18 44 49 53 60 63 57 52 47 43 40 44 47 49 61 74 83 84 77 68 59 54 48 40 36 33 30 28 22 18 14 10 9 7
105 43 19 16 13 12 25 10 12 19 19 10 8 12 12 15 43 10 12 27 20 54 68 69 74 73 61 58 57 54 54 54 54 54 67 85 86 79 70 63 55 48 41 38 36 32 29 26 24 21 17 13 11 8
20 11 23 10 15 17 11 15 8 8 11 8 10 9 12 23 11 14 10 21 61 74 82 85 83 83 83 74 68 65 63 64 65 70 80 83 84 77 68 59 53 48 44 40 37 33 30 27 25 23 18 16 13 10
14 10 11 11 13 15 17 16 16 13 14 10 7 21 15 9 10 16 18 48 67 92 101 103 100 92 86 82 82 78 78 72 69 76 86 87 81 80 76 68 59 52 45 40 36 34 31 28 26 24 23 19 15 12
14 9 12 15 28 31 17 19 28 14 12 16 15 16 13 17 19 10 37 70 85 92 97 101 102 98 94 90 81 75 77 79 78 81 87 81 71 66 62 59 53 46 43 42 38 34 32 30 28 26 23 19 16 14
10 18 25 28 17 11 15 13 13 12 13 31 33 16 24 25 10 31 38 75 82 97 107 101 97 96 95 96 90 89 90 86 83 82 84 77 70 62 53 46 42 37 38 39 37 35 33 31 29 27 24 20 19 18
8 40 32 23 12 11 6 8 9 14 35 53 14 11 11 10 36 38 64 91 95 109 111 103 95 96 92 91 95 99 100 100 101 97 90 81 72 63 55 49 47 45 44 42 40 36 33 31 28 26 24 22 21 19
10 13 12 8 10 8 5 11 21 39 46 31 27 36 28 26 27 56 86 96 105 115 116 119 121 116 115 116 112 104 97 93 88 89 87 83 76 66 59 54 51 47 43 40 39 38 37 35 33 31 28 25 23 22
17 13 13 11 10 26 48 66 63 48 32 34 51 60 45 34 37 51 67 79 85 88 96 103 105 106 118 120 119 114 104 94 86 79 72 69 65 62 58 53 48 44 42 40 39 39 37 35 34 31 29 28 26 24
11 7 10 13 19 53 49 34 28 44 30 30 27 31 44 28 15 31 52 63 74 82 90 102 109 108 115 110 106 98 94 90 84 74 66 61 58 55 51 47 44 44 43 41 41 40 38 37 36 34 32 30 29 27
51 70 64 40 16 11 15 22 18 14 20 19 21 31 21 10 13 25 54 63 72 79 86 93 101 105 101 103 100 92 82 76 70 64 59 59 56 55 53 48 47 46 44 43 41 40 40 38 37 35 34 33 33 33
Wind_Direction_850mb
243 225 217 212 214 214 215 210 208 208 207 212 211 213 216 217 213 203 206 204 198 121 134 145 144 128 139 152 144 147 131 176 156 120 163 107 227 107 249 77 275 264 193 177 109 261 275 153 161 270 343 322 328 332
243 230 224 212 215 213 212 207 205 206 204 207 205 207 210 210 203 198 200 193 195 143 132 135 127 141 151 140 121 158 107 134 167 122 195 105 158 161 356 263 193 245 242 289 218 351 102 159 300 318 297 315 324 326
252 227 223 213 215 210 208 205 202 204 201 202 199 199 197 192 188 193 200 184 166 115 102 111 106 118 128 140 145 138 164 159 146 133 119 99 136 180 223 232 219 199 197 237 300 177 223 208 228 277 297 309 322 326
243 224 223 220 214 208 205 203 200 201 198 198 197 198 199 190 183 192 197 180 166 129 112 108 124 116 113 127 135 131 154 145 143 117 93 116 153 200 288 353 267 38 160 201 244 192 185 205 183 285 310 325 326 325
239 223 215 228 214 208 202 201 198 198 195 194 192 187 182 181 184 189 202 186 171 168 122 129 115 102 110 110 116 120 128 131 118 90 84 115 108 170 191 300 244 185 192 197 16 128 153 133 179 265 324 335 332 334
238 227 214 220 212 206 200 198 196 195 192 189 187 180 176 181 189 173 143 174 184 146 112 124 128 110 117 117 122 123 127 121 107 94 103 114 157 199 229 262 85 173 163 146 145 132 121 133 140 208 343 335 335 338
239 223 213 221 213 206 198 195 193 193 189 185 183 180 181 171 165 179 193 170 161 138 115 106 110 151 136 117 107 97 107 104 87 95 117 135 144 168 247 244 143 168 158 137 139 129 123 142 149 189 351 336 339 340
236 224 210 214 210 206 194 193 190 190 185 181 177 172 162 168 184 171 154 150 152 125 106 110 101 148 155 121 94 104 92 86 66 100 125 172 162 213 246 223 165 163 156 152 153 133 131 144 148 130 356 340 346 344
232 225 210 211 208 207 192 189 187 185 181 174 169 165 167 174 173 144 143 140 131 123 113 104 137 154 151 117 110 97 96 87 78 168 153 202 199 229 225 188 179 174 173 170 164 152 142 148 163 123 357 343 346 343
232 220 207 212 212 208 191 186 185 181 175 168 161 154 174 173 155 140 136 147 117 81 90 91 121 123 150 141 118 124 76 106 174 94 154 226 256 242 216 187 184 177 171 168 166 170 170 175 178 154 6 342 345 343
231 218 209 206 205 206 189 184 182 174 170 158 165 166 148 147 141 132 136 127 123 67 81 108 132 129 138 141 127 127 136 128 160 113 248 234 256 208 191 176 174 172 171 171 175 178 173 176 166 136 349 336 341 342
236 214 204 204 208 207 186 184 179 173 167 169 158 133 136 153 125 120 75 120 149 159 136 126 131 121 125 122 113 133 112 161 164 141 248 250 213 168 169 169 169 170 165 169 169 164 162 163 168 181 306 332 341 347
245 206 200 203 202 202 184 183 179 171 163 153 144 159 151 162 110 163 176 199 161 165 157 149 132 124 116 115 96 125 144 132 129 201 242 239 163 170 169 167 167 167 167 168 164 170 174 179 186 201 328 347 344 348
230 207 198 202 206 203 187 181 179 167 159 167 143 133 190 175 200 183 174 134 139 149 142 136 117 120 124 108 136 121 96 149 178 230 234 192 185 174 170 171 169 169 171 171 174 174 177 177 187 218 326 342 342 351
217 214 202 202 209 209 186 182 177 171 171 160 152 192 176 150 126 141 149 134 140 145 140 122 95 108 109 111 115 114 133 206 217 227 203 174 174 171 169 172 173 172 171 173 175 175 175 179 184 209 310 333 347 353
221 212 198 197 196 199 183 180 173 176 187 165 169 117 146 140 133 143 144 136 149 147 137 116 116 125 130 135 153 206 170 210 209 201 176 170 172 172 172 172 173 178 172 175 176 175 180 183 184 210 285 327 347 353
231 225 196 195 196 192 182 172 176 183 181 174 159 158 158 156 166 164 162 160 158 152 142 137 131 151 124 157 192 189 209 191 158 160 175 179 180 173 171 169 174 176 172 174 177 179 186 194 196 205 252 319 344 354
238 198 193 196 190 181 174 183 187 182 143 138 143 159 164 166 159 158 166 161 157 180 161 159 131 163 172 172 200 198 190 172 157 166 168 173 171 172 169 169 175 176 174 175 178 184 192 194 196 209 242 304 337 351
220 209 195 189 187 170 179 196 188 115 98 136 154 165 160 160 171 177 174 163 178 171 151 151 133 171 188 208 188 180 181 173 169 166 168 170 173 171 170 173 175 175 176 177 179 186 193 198 201 213 234 281 328 342
205 191 186 185 180 169 148 140 157 129 141 156 156 148 153 155 165 173 161 172 170 163 167 176 184 190 177 179 180 182 180 176 171 156 158 165 175 178 177 177 177 177 178 177 181 191 197 204 210 216 229 257 307 329
209 200 178 174 172 166 146 146 109 115 123 121 142 134 121 139 136 146 162 170 178 207 182 193 177 174 182 182 179 179 179 189 187 193 190 173 175 178 179 180 180 182 184 186 190 192 194 198 210 219 230 253 288 324
210 172 166 168 163 118 103 131 122 112 91 140 119 112 125 140 141 155 161 188 220 202 186 181 180 177 172 170 171 175 176 177 190 197 187 183 173 179 181 184 183 185 188 192 192 195 197 201 210 222 228 249 277 310
173 166 163 143 105 94 125 120 97 113 125 151 123 101 117 136 167 154 190 219 197 198 186 185 182 179 178 173 171 172 179 188 189 189 184 180 179 181 182 184 186 187 189 191 194 196 200 208 211 215 219 234 261 292
163 152 128 115 113 113 137 139 129 111 116 142 109 110 133 132 152 210 236 179 177 176 181 183 178 170 172 175 177 181 188 192 192 186 183 182 180 180 183 183 186 190 193 191 192 196 201 198 200 205 212 220 239 257
118 126 112 116 131 113 128 140 139 110 110 137 121 137 151 164 177 191 215 173 170 173 176 179 180 181 177 179 183 185 191 194 190 181 184 184 180 177 180 184 186 189 190 190 193 195 194 196 199 207 212 219 233 243
94 161 132 136 148 131 158 136 158 132 119 131 115 131 146 140 173 227 189 166 170 175 179 181 182 181 188 197 189 188 192 190 190 185 179 184 185 181 180 182 186 190 193 197 198 197 198 198 202 206 207 215 223 235
116 137 138 120 129 119 105 90 124 107 133 153 152 158 158 175 221 181 149 178 175 188 192 194 194 194 195 192 195 196 191 188 189 183 179 180 183 189 189 189 195 199 199 200 202 202 201 202 204 204 208 214 220 228
118 155 142 147 119 123 115 125 143 155 144 151 137 172 181 198 174 159 169 176 188 189 187 188 190 192 196 196 190 185 179 177 178 178 173 175 182 187 190 196 201 198 194 198 200 198 199 202 203 204 208 214 219 222
120 134 124 111 98 87 90 128 145 135 141 161 143 144 139 116 145 163 167 173 181 178 173 173 179 188 188 188 186 183 179 175 175 173 173 173 178 186 192 192 190 189 188 188 190 194 196 196 199 203 209 215 220 221
109 100 97 73 64 66 77 92 115 130 136 132 112 110 97 96 142 164 168 169 169 173 175 177 180 184 183 180 176 175 178 179 179 176 175 181 184 183 185 185 183 180 181 185 190 192 195 201 204 206 210 217 222 222
111 104 86 86 93 95 109 109 108 103 97 103 120 119 121 114 122 150 160 164 164 163 164 168 171 179 178 175 173 171 171 177 181 185 185 181 178 177 179 181 181 183 187 191 194 197 199 200 204 209 214 219 222 227
57 78 117 101 122 124 108 80 76 94 91 91 112 126 122 114 102 155 163 167 164 165 169 168 169 170 179 176 175 176 176 174 178 181 180 174 172 176 178 182 183 186 190 192 197 201 202 204 208 214 219 223 227 231
104 103 106 103 100 82 109 98 94 66 55 90 107 118 103 90 125 157 167 173 170 165 162 162 168 171 173 175 173 174 174 171 170 171 171 172 174 176 179 183 186 189 193 197 201 204 208 211 214 219 225 231 236 239